{"data":{"norad_id":37810,"epoch":"2026-05-25T03:50:16.719072Z","epoch_age_seconds":61156,"freshness":"FRESH","line1":"1 37810U 11049B   26145.15991573  .00000121  00000+0  00000+0 0  9994","line2":"2 37810   0.0496 350.2033 0003278  94.2539 235.8875  1.00273137 53806","mean_motion":1.00273137,"eccentricity":0.0003278,"inclination_deg":0.0496,"raan_deg":350.2033,"arg_perigee_deg":94.2539,"mean_anomaly_deg":235.8875,"bstar":0,"rev_number":5380,"period_min":1436.0775408871,"perigee_km":35772.394475873,"apogee_km":35800.037425668,"semimajor_km":42164.35295077,"source":"CELESTRAK","updated_at":"2026-05-25T13:38:13.904399Z"}}